Weather History for KBFF - November, 2013

Change the Weather History Date:

Wednesday, November 6, 2013

  Actual Average Record
Temperature  
Mean Temperature 35 °F 40 °F  
Max Temperature 51 °F 55 °F 78 °F (1999)
Min Temperature 18 °F 26 °F 3 °F (1943)
Degree Days  
Heating Degree Days 30 25  
Month to date heating degree days 158 141  
Since 1 July heating degree days 814 832  
Cooling Degree Days 0 0  
Month to date cooling degree days 0 0  
Year to date cooling degree days 1047 724  
Moisture  
Dew Point 25 °F    
Average Humidity 65    
Maximum Humidity 91    
Minimum Humidity 38    
Precipitation  
Precipitation T in 0.02 in 0.65 in (1918)
Month to date precipitation 0.63 0.16  
Year to date precipitation 12.52 14.78  
Snow  
Snow 0.00 in 0.20 in 6.50 in (1918)
Month to date snowfall 10.0 1.0  
Since 1 July snowfall 16.6 4.2  
Snow Depth 0.00 in    
Sea Level Pressure  
Sea Level Pressure 30.27 in    
Wind  
Wind Speed 7 mph (NW)    
Max Wind Speed 22 mph    
Max Gust Speed 30 mph    
Visibility 10 miles    
Events Rain    
T = Trace of Precipitation, MM = Missing Value Source: NWS Daily Summary

Daily Weather History Graph

Daily Weather History Graph

Search for Another Location

Airport or City:

Trip Planner

Search our weather history database for the weather conditions in past years. The results will help you decide how hot, cold, wet, or windy it might be!

Date:

Astronomy

Nov. 06, 2013 Rise Set
Actual Time 6:33 AM MST 4:42 PM MST
Civil Twilight 6:03 AM MST 5:11 PM MST
Nautical Twilight 5:30 AM MST 5:44 PM MST
Astronomical Twilight 4:58 AM MST 6:17 PM MST
Moon 9:51 AM MST (11/6) 7:48 PM MST (11/6)
Length of Visible Light 11h 07m
Length of Day
10h 08m
Waxing Crescent, 14% of the Moon is Illuminated
Nov 6
Waxing Crescent
Nov 9
First Quarter
Nov 17
Full
Nov 25
Last Quarter
Dec 2
New

Hourly Weather History & Observations

Time (MST) Temp. Windchill Dew Point Humidity Pressure Visibility Wind Dir Wind Speed Gust Speed Precip Events Conditions
12:53 AM 19.9 °F 13.4 °F 18.0 °F 92% 30.20 in 10.0 mi North 4.6 mph - N/A   Clear
1:53 AM 19.0 °F - 16.0 °F 88% 30.22 in 10.0 mi Calm Calm - N/A   Clear
2:53 AM 19.0 °F - 15.1 °F 85% 30.21 in 10.0 mi Calm Calm - N/A   Clear
3:53 AM 19.0 °F - 15.1 °F 85% 30.21 in 10.0 mi Calm Calm - N/A   Clear
4:53 AM 19.9 °F 13.4 °F 17.1 °F 89% 30.23 in 10.0 mi NNW 4.6 mph - N/A   Clear
5:53 AM 21.0 °F 14.6 °F 17.1 °F 85% 30.23 in 10.0 mi NNW 4.6 mph - N/A   Clear
6:53 AM 24.1 °F 19.7 °F 19.0 °F 81% 30.25 in 10.0 mi NNW 3.5 mph - N/A   Clear
7:53 AM 28.9 °F - 25.0 °F 85% 30.25 in 10.0 mi Calm Calm - N/A   Clear
8:53 AM 33.1 °F - 26.1 °F 75% 30.26 in 10.0 mi Calm Calm - N/A   Clear
9:53 AM 37.9 °F 32.1 °F 28.9 °F 70% 30.26 in 10.0 mi WNW 8.1 mph - N/A   Clear
10:53 AM 44.1 °F 36.8 °F 28.0 °F 53% 30.24 in 10.0 mi WNW 16.1 mph - N/A   Clear
11:53 AM 48.0 °F - 27.0 °F 44% 30.22 in 10.0 mi WNW 15.0 mph - N/A   Clear
12:53 PM 48.9 °F - 25.0 °F 39% 30.21 in 10.0 mi WNW 13.8 mph 21.9 mph N/A   Partly Cloudy
1:53 PM 51.1 °F - 26.1 °F 38% 30.21 in 10.0 mi West 19.6 mph 24.2 mph N/A   Partly Cloudy
2:53 PM 46.9 °F - 26.1 °F 44% 30.23 in 10.0 mi West 8.1 mph - N/A   Scattered Clouds
3:53 PM 45.0 °F 38.5 °F 28.0 °F 52% 30.26 in 10.0 mi West 13.8 mph 29.9 mph 0.00 in Rain Light Rain
4:53 PM 42.1 °F 33.6 °F 30.9 °F 65% 30.29 in 10.0 mi North 18.4 mph 24.2 mph 0.00 in Rain Light Rain
5:53 PM 41.0 °F 37.1 °F 30.9 °F 67% 30.32 in 10.0 mi NNW 5.8 mph - 0.00 in   Overcast
6:53 PM 36.0 °F 31.1 °F 28.9 °F 76% 30.33 in 10.0 mi SW 5.8 mph - N/A   Mostly Cloudy
7:53 PM 33.1 °F 30.0 °F 28.0 °F 82% 30.35 in 10.0 mi North 3.5 mph - N/A   Clear
8:53 PM 35.1 °F 30.1 °F 28.9 °F 78% 30.38 in 10.0 mi North 5.8 mph - N/A   Overcast
9:53 PM 32.0 °F 26.4 °F 27.0 °F 82% 30.40 in 10.0 mi SSW 5.8 mph - N/A   Mostly Cloudy
10:53 PM 33.1 °F 27.7 °F 28.9 °F 85% 30.39 in 10.0 mi NW 5.8 mph - N/A   Overcast
11:53 PM 32.0 °F 26.4 °F 28.0 °F 85% 30.39 in 10.0 mi WNW 5.8 mph - N/A   Mostly Cloudy